date,time,SUV Intensity [MED/Hr],UV Index,Daily total [MED],Since Last [MED]
12/06/2022,00:09:09,0.000,0.0,0.0,0.0
12/06/2022,00:11:10,0.000,0.0,0.0,0.0
12/06/2022,00:13:10,-0.000,0.0,0.0,0.0
12/06/2022,00:15:17,0.001,0.0,0.0,0.0
12/06/2022,00:17:09,0.000,0.0,0.0,0.0
12/06/2022,00:19:09,0.001,0.0,0.0,0.0
12/06/2022,00:21:09,0.000,0.0,0.0,0.0
12/06/2022,00:23:09,0.000,0.0,0.0,0.0
12/06/2022,00:25:09,0.002,0.0,0.0,0.0
12/06/2022,00:27:09,0.000,0.0,0.0,0.0
12/06/2022,00:29:09,0.000,0.0,0.0,0.0
12/06/2022,00:31:09,0.000,0.0,0.0,0.0
12/06/2022,00:33:09,0.001,0.0,0.0,0.0
12/06/2022,00:35:09,0.000,0.0,0.0,0.0
12/06/2022,00:37:09,0.001,0.0,0.0,0.0
12/06/2022,00:39:09,0.001,0.0,0.0,0.0
12/06/2022,00:41:10,0.000,0.0,0.0,0.0
12/06/2022,00:43:09,0.000,0.0,0.0,0.0
12/06/2022,00:45:09,0.000,0.0,0.0,0.0
12/06/2022,00:47:10,0.000,0.0,0.0,0.0
12/06/2022,00:49:11,0.000,0.0,0.0,0.0
12/06/2022,00:51:09,0.001,0.0,0.0,0.0
12/06/2022,00:53:09,0.000,0.0,0.0,0.0
12/06/2022,00:55:17,0.001,0.0,0.0,0.0
12/06/2022,00:57:09,0.000,0.0,0.0,0.0
12/06/2022,00:59:09,0.000,0.0,0.0,0.0
12/06/2022,01:01:09,0.000,0.0,0.0,0.0
12/06/2022,01:03:10,0.000,0.0,0.0,0.0
12/06/2022,01:05:09,0.001,0.0,0.0,0.0
12/06/2022,01:07:09,0.001,0.0,0.0,0.0
12/06/2022,01:09:09,0.001,0.0,0.0,0.0
12/06/2022,01:11:09,0.001,0.0,0.0,0.0
12/06/2022,01:13:09,0.000,0.0,0.0,0.0
12/06/2022,01:15:10,0.000,0.0,0.0,0.0
12/06/2022,01:17:09,0.000,0.0,0.0,0.0
12/06/2022,01:19:09,0.000,0.0,0.0,0.0
12/06/2022,01:21:09,0.000,0.0,0.0,0.0
12/06/2022,01:23:25,0.001,0.0,0.0,0.0
12/06/2022,01:25:09,0.001,0.0,0.0,0.0
12/06/2022,01:27:09,0.000,0.0,0.0,0.0
12/06/2022,01:29:09,0.000,0.0,0.0,0.0
12/06/2022,01:31:09,-0.000,0.0,0.0,0.0
12/06/2022,01:33:09,0.001,0.0,0.0,0.0
12/06/2022,01:35:09,0.000,0.0,0.0,0.0
12/06/2022,01:37:09,0.000,0.0,0.0,0.0
12/06/2022,01:39:10,0.001,0.0,0.0,0.0
12/06/2022,01:41:09,0.000,0.0,0.0,0.0
12/06/2022,01:43:09,0.001,0.0,0.0,0.0
12/06/2022,01:45:17,0.000,0.0,0.0,0.0
12/06/2022,01:47:09,0.000,0.0,0.0,0.0
12/06/2022,01:49:09,0.000,0.0,0.0,0.0
12/06/2022,01:51:18,-0.000,0.0,0.0,0.0
12/06/2022,01:53:09,0.000,0.0,0.0,0.0
12/06/2022,01:55:09,0.000,0.0,0.0,0.0
12/06/2022,01:57:09,0.000,0.0,0.0,0.0
12/06/2022,01:59:09,0.001,0.0,0.0,0.0
12/06/2022,02:01:18,0.000,0.0,0.0,0.0
12/06/2022,02:03:09,-0.001,0.0,0.0,0.0
12/06/2022,02:05:09,-0.000,0.0,0.0,0.0
12/06/2022,02:07:09,0.000,0.0,0.0,0.0
12/06/2022,02:09:10,0.001,0.0,0.0,0.0
12/06/2022,02:11:09,0.000,0.0,0.0,0.0
12/06/2022,02:13:34,0.000,0.0,0.0,0.0
12/06/2022,02:16:10,0.000,0.0,0.0,0.0
12/06/2022,02:18:09,0.000,0.0,0.0,0.0
12/06/2022,02:20:09,0.000,0.0,0.0,0.0
12/06/2022,02:22:09,0.001,0.0,0.0,0.0
12/06/2022,02:24:09,0.001,0.0,0.0,0.0
12/06/2022,02:26:10,0.000,0.0,0.0,0.0
12/06/2022,02:28:09,0.000,0.0,0.0,0.0
12/06/2022,02:30:09,0.000,0.0,0.0,0.0
12/06/2022,02:32:09,-0.000,0.0,0.0,0.0
12/06/2022,02:34:09,0.001,0.0,0.0,0.0
12/06/2022,02:36:10,0.000,0.0,0.0,0.0
12/06/2022,02:38:09,0.001,0.0,0.0,0.0
12/06/2022,02:40:09,0.000,0.0,0.0,0.0
12/06/2022,02:42:10,0.000,0.0,0.0,0.0
12/06/2022,02:44:09,0.001,0.0,0.0,0.0
12/06/2022,02:46:09,0.002,0.0,0.0,0.0
12/06/2022,02:48:10,0.001,0.0,0.0,0.0
12/06/2022,02:50:10,0.000,0.0,0.0,0.0
12/06/2022,02:52:10,-0.000,0.0,0.0,0.0
12/06/2022,02:54:09,0.001,0.0,0.0,0.0
12/06/2022,02:56:09,0.001,0.0,0.0,0.0
12/06/2022,02:58:09,-0.001,0.0,0.0,0.0
12/06/2022,03:00:17,-0.001,0.0,0.0,0.0
12/06/2022,03:02:09,0.001,0.0,0.0,0.0
12/06/2022,03:04:10,0.001,0.0,0.0,0.0
12/06/2022,03:06:09,0.001,0.0,0.0,0.0
12/06/2022,03:08:09,0.000,0.0,0.0,0.0
12/06/2022,03:10:17,0.000,0.0,0.0,0.0
12/06/2022,03:12:09,0.000,0.0,0.0,0.0
12/06/2022,03:14:09,0.000,0.0,0.0,0.0
12/06/2022,03:16:10,0.001,0.0,0.0,0.0
12/06/2022,03:18:09,0.000,0.0,0.0,0.0
12/06/2022,03:20:09,-0.001,0.0,0.0,0.0
12/06/2022,03:22:09,0.002,0.0,0.0,0.0
12/06/2022,03:24:18,0.001,0.0,0.0,0.0
12/06/2022,03:26:10,0.001,0.0,0.0,0.0
12/06/2022,03:28:18,-0.000,0.0,0.0,0.0
12/06/2022,03:30:09,0.001,0.0,0.0,0.0
12/06/2022,03:32:09,0.001,0.0,0.0,0.0
12/06/2022,03:34:09,0.001,0.0,0.0,0.0
12/06/2022,03:36:10,0.002,0.0,0.0,0.0
12/06/2022,03:38:17,0.002,0.0,0.0,0.0
12/06/2022,03:40:10,0.002,0.0,0.0,0.0
12/06/2022,03:42:09,0.001,0.0,0.0,0.0
12/06/2022,03:44:09,0.001,0.0,0.0,0.0
12/06/2022,03:46:10,0.002,0.0,0.0,0.0
12/06/2022,03:48:10,0.002,0.0,0.0,0.0
12/06/2022,03:50:10,0.002,0.0,0.0,0.0
12/06/2022,03:52:10,0.003,0.0,0.0,0.0
12/06/2022,03:54:17,0.002,0.0,0.0,0.0
12/06/2022,03:56:09,0.003,0.0,0.0,0.0
12/06/2022,03:58:10,0.003,0.0,0.0,0.0
12/06/2022,04:00:09,0.005,0.0,0.0,0.0
12/06/2022,04:02:10,0.004,0.0,0.0,0.0
12/06/2022,04:04:14,0.003,0.0,0.0,0.0
12/06/2022,04:06:18,0.006,0.0,0.0,0.0
12/06/2022,04:08:09,0.005,0.0,0.0,0.0
12/06/2022,04:10:10,0.005,0.0,0.0,0.0
12/06/2022,04:12:09,0.006,0.0,0.0,0.0
12/06/2022,04:14:09,0.006,0.0,0.0,0.0
12/06/2022,04:16:18,0.007,0.0,0.0,0.0
12/06/2022,04:18:09,0.007,0.0,0.001,0.001
12/06/2022,04:20:09,0.008,0.0,0.001,0.0
12/06/2022,04:22:09,0.010,0.0,0.001,0.0
12/06/2022,04:24:10,0.010,0.0,0.002,0.001
12/06/2022,04:26:10,0.010,0.0,0.002,0.0
12/06/2022,04:28:09,0.011,0.0,0.002,0.0
12/06/2022,04:30:10,0.011,0.0,0.003,0.001
12/06/2022,04:32:10,0.012,0.0,0.003,0.0
12/06/2022,04:34:09,0.013,0.0,0.003,0.0
12/06/2022,04:36:10,0.014,0.0,0.004,0.001
12/06/2022,04:38:09,0.015,0.0,0.004,0.0
12/06/2022,04:40:09,0.017,0.0,0.005,0.001
12/06/2022,04:42:09,0.018,0.0,0.005,0.0
12/06/2022,04:44:09,0.019,0.0,0.006,0.001
12/06/2022,04:46:10,0.020,0.0,0.007,0.001
12/06/2022,04:48:09,0.021,0.0,0.007,0.0
12/06/2022,04:50:09,0.023,0.0,0.008,0.001
12/06/2022,04:52:10,0.024,0.0,0.009,0.001
12/06/2022,04:54:18,0.026,0.0,0.01,0.001
12/06/2022,04:57:10,0.028,0.0,0.011,0.001
12/06/2022,04:59:09,0.029,0.0,0.012,0.001
12/06/2022,05:01:10,0.032,0.0,0.013,0.001
12/06/2022,05:03:09,0.033,0.0,0.014,0.001
12/06/2022,05:05:10,0.034,0.0,0.015,0.001
12/06/2022,05:07:18,0.037,0.0,0.017,0.002
12/06/2022,05:09:09,0.040,0.0,0.018,0.001
12/06/2022,05:11:09,0.040,0.0,0.019,0.001
12/06/2022,05:13:10,0.044,0.0,0.021,0.002
12/06/2022,05:15:10,0.046,0.0,0.022,0.001
12/06/2022,05:17:18,0.049,0.0,0.024,0.002
12/06/2022,05:20:10,0.052,0.0,0.026,0.002
12/06/2022,05:22:11,0.055,0.0,0.028,0.002
12/06/2022,05:24:09,0.058,0.0,0.03,0.002
12/06/2022,05:26:10,0.061,0.0,0.032,0.002
12/06/2022,05:28:09,0.064,0.0,0.034,0.002
12/06/2022,05:30:10,0.067,0.0,0.036,0.002
12/06/2022,05:32:18,0.070,0.0,0.038,0.002
12/06/2022,05:34:09,0.073,0.0,0.041,0.003
12/06/2022,05:36:09,0.076,0.0,0.043,0.002
12/06/2022,05:38:09,0.080,0.0,0.046,0.003
12/06/2022,05:40:09,0.084,0.0,0.049,0.003
12/06/2022,05:42:18,0.089,0.0,0.052,0.003
12/06/2022,05:44:10,0.092,0.0,0.054,0.002
12/06/2022,05:46:10,0.096,0.0,0.058,0.004
12/06/2022,05:48:10,0.100,0.0,0.061,0.003
12/06/2022,05:50:10,0.103,0.0,0.064,0.003
12/06/2022,05:52:18,0.110,0.0,0.068,0.004
12/06/2022,05:54:10,0.113,0.0,0.071,0.003
12/06/2022,05:56:09,0.118,0.0,0.075,0.004
12/06/2022,05:58:12,0.123,0.0,0.079,0.004
12/06/2022,06:00:09,0.129,0.0,0.084,0.005
12/06/2022,06:02:10,0.133,0.0,0.088,0.004
12/06/2022,06:04:09,0.140,0.0,0.092,0.004
12/06/2022,06:06:09,0.144,0.0,0.097,0.005
12/06/2022,06:08:10,0.150,0.0,0.102,0.005
12/06/2022,06:10:09,0.157,0.0,0.107,0.005
12/06/2022,06:12:10,0.162,0.0,0.113,0.006
12/06/2022,06:14:09,0.169,0.0,0.118,0.005
12/06/2022,06:16:10,0.175,0.0,0.124,0.006
12/06/2022,06:18:09,0.181,0.0,0.13,0.006
12/06/2022,06:20:18,0.190,0.0,0.136,0.006
12/06/2022,06:22:10,0.196,0.0,0.142,0.006
12/06/2022,06:24:10,0.204,0.0,0.149,0.007
12/06/2022,06:26:09,0.209,0.0,0.156,0.007
12/06/2022,06:28:09,0.219,1.0,0.163,0.007
12/06/2022,06:30:09,0.224,1.0,0.17,0.007
12/06/2022,06:32:10,0.234,1.0,0.178,0.008
12/06/2022,06:34:10,0.241,1.0,0.186,0.008
12/06/2022,06:36:10,0.249,1.0,0.194,0.008
12/06/2022,06:38:09,0.258,1.0,0.202,0.008
12/06/2022,06:40:26,0.268,1.0,0.212,0.01
12/06/2022,06:43:10,0.280,1.0,0.225,0.013
12/06/2022,06:45:18,0.289,1.0,0.235,0.01
12/06/2022,06:47:10,0.299,1.0,0.244,0.009
12/06/2022,06:49:10,0.310,1.0,0.254,0.01
12/06/2022,06:51:10,0.318,1.0,0.265,0.011
12/06/2022,06:53:09,0.328,1.0,0.275,0.01
12/06/2022,06:55:18,0.338,1.0,0.287,0.012
12/06/2022,06:57:10,0.350,1.0,0.298,0.011
12/06/2022,06:59:09,0.360,1.0,0.31,0.012
12/06/2022,07:01:10,0.371,1.0,0.322,0.012
12/06/2022,07:03:10,0.384,1.0,0.334,0.012
12/06/2022,07:05:09,0.394,1.0,0.347,0.013
12/06/2022,07:07:10,0.406,1.0,0.361,0.014
12/06/2022,07:09:10,0.419,1.0,0.374,0.013
12/06/2022,07:11:00,0.428,1.0,0.387,0.013
12/06/2022,07:13:11,0.442,1.0,0.403,0.016
12/06/2022,07:15:10,0.452,1.0,0.418,0.015
12/06/2022,07:17:09,0.468,1.0,0.433,0.015
12/06/2022,07:19:10,0.479,1.0,0.449,0.016
12/06/2022,07:21:10,0.490,1.0,0.464,0.015
12/06/2022,07:23:09,0.509,1.0,0.481,0.017
12/06/2022,07:25:10,0.504,1.0,0.498,0.017
12/06/2022,07:27:10,0.536,1.0,0.515,0.017
12/06/2022,07:29:09,0.471,1.0,0.533,0.018
12/06/2022,07:31:10,0.563,1.0,0.55,0.017
12/06/2022,07:33:18,0.577,1.0,0.569,0.019
12/06/2022,07:35:10,0.599,1.0,0.587,0.018
12/06/2022,07:37:10,0.608,1.0,0.608,0.021
12/06/2022,07:39:10,0.625,1.0,0.627,0.019
12/06/2022,07:41:09,0.649,1.0,0.648,0.021
12/06/2022,07:43:09,0.521,1.0,0.668,0.02
12/06/2022,07:45:10,0.668,2.0,0.69,0.022
12/06/2022,07:47:09,0.515,1.0,0.711,0.021
12/06/2022,07:49:10,0.693,2.0,0.734,0.023
12/06/2022,07:51:10,0.728,2.0,0.755,0.021
12/06/2022,07:53:10,0.737,2.0,0.779,0.024
12/06/2022,07:55:09,0.766,2.0,0.804,0.025
12/06/2022,07:57:10,0.622,1.0,0.829,0.025
12/06/2022,07:59:09,0.793,2.0,0.853,0.024
12/06/2022,08:02:11,0.828,2.0,0.894,0.041
12/06/2022,08:04:18,0.848,2.0,0.924,0.03
12/06/2022,08:06:08,0.861,2.0,0.95,0.026
12/06/2022,08:08:18,0.888,2.0,0.98,0.03
12/06/2022,08:10:10,0.858,2.0,1.008,0.028
12/06/2022,08:12:10,0.920,2.0,1.034,0.026
12/06/2022,08:14:18,0.918,2.0,1.064,0.03
12/06/2022,08:16:10,0.945,2.0,1.093,0.029
12/06/2022,08:18:10,0.978,2.0,1.121,0.028
12/06/2022,08:20:10,1.023,2.0,1.153,0.032
12/06/2022,08:22:09,0.731,2.0,1.183,0.03
12/06/2022,08:24:18,1.036,2.0,1.216,0.033
12/06/2022,08:26:10,1.029,2.0,1.247,0.031
12/06/2022,08:28:10,1.070,2.0,1.28,0.033
12/06/2022,08:30:10,1.122,3.0,1.317,0.037
12/06/2022,08:32:10,1.076,2.0,1.353,0.036
12/06/2022,08:34:10,0.775,2.0,1.38,0.027
12/06/2022,08:36:18,0.580,1.0,1.402,0.022
12/06/2022,08:38:11,0.658,2.0,1.422,0.02
12/06/2022,08:40:10,0.679,2.0,1.445,0.023
12/06/2022,08:42:10,1.138,3.0,1.473,0.028
12/06/2022,08:44:09,0.800,2.0,1.501,0.028
12/06/2022,08:46:10,0.650,1.0,1.523,0.022
12/06/2022,08:48:10,0.715,2.0,1.546,0.023
12/06/2022,08:50:10,0.723,2.0,1.57,0.024
12/06/2022,08:52:10,0.681,2.0,1.594,0.024
12/06/2022,08:54:10,1.188,3.0,1.62,0.026
12/06/2022,08:56:10,0.707,2.0,1.647,0.027
12/06/2022,08:58:10,0.753,2.0,1.675,0.028
12/06/2022,09:00:11,1.117,3.0,1.71,0.035
12/06/2022,09:02:09,0.592,1.0,1.73,0.02
12/06/2022,09:04:10,0.556,1.0,1.749,0.019
12/06/2022,09:06:10,0.558,1.0,1.768,0.019
12/06/2022,09:08:10,0.592,1.0,1.787,0.019
12/06/2022,09:10:09,0.644,1.0,1.807,0.02
12/06/2022,09:12:10,0.747,2.0,1.83,0.023
12/06/2022,09:14:10,0.760,2.0,1.856,0.026
12/06/2022,09:16:10,0.731,2.0,1.881,0.025
12/06/2022,09:18:10,0.750,2.0,1.906,0.025
12/06/2022,09:20:10,0.772,2.0,1.931,0.025
12/06/2022,09:22:11,0.849,2.0,1.958,0.027
12/06/2022,09:24:10,0.940,2.0,1.988,0.03
12/06/2022,09:26:10,1.064,2.0,2.021,0.033
12/06/2022,09:28:10,1.129,3.0,2.066,0.045
12/06/2022,09:30:10,1.090,3.0,2.103,0.037
12/06/2022,09:32:10,0.901,2.0,2.139,0.036
12/06/2022,09:34:10,0.756,2.0,2.166,0.027
12/06/2022,09:36:10,0.651,1.0,2.19,0.024
12/06/2022,09:38:19,0.560,1.0,2.211,0.021
12/06/2022,09:40:10,0.591,1.0,2.229,0.018
12/06/2022,09:42:10,0.706,2.0,2.25,0.021
12/06/2022,09:44:10,0.839,2.0,2.276,0.026
12/06/2022,09:46:10,0.962,2.0,2.306,0.03
12/06/2022,09:48:10,0.932,2.0,2.337,0.031
12/06/2022,09:50:10,0.910,2.0,2.368,0.031
12/06/2022,09:52:11,0.901,2.0,2.399,0.031
12/06/2022,09:54:10,0.908,2.0,2.429,0.03
12/06/2022,09:56:10,0.952,2.0,2.46,0.031
12/06/2022,09:58:12,1.147,3.0,2.496,0.036
12/06/2022,10:00:10,1.189,3.0,2.54,0.044
12/06/2022,10:02:10,1.070,2.0,2.577,0.037
12/06/2022,10:04:10,1.076,2.0,2.612,0.035
12/06/2022,10:06:10,1.327,3.0,2.662,0.05
12/06/2022,10:08:10,1.094,3.0,2.698,0.036
12/06/2022,10:10:10,1.238,3.0,2.737,0.039
12/06/2022,10:12:10,2.126,5.0,2.786,0.049
12/06/2022,10:14:10,1.366,3.0,2.837,0.051
12/06/2022,10:16:10,1.986,5.0,2.891,0.054
12/06/2022,10:18:10,1.426,3.0,2.957,0.066
12/06/2022,10:20:10,1.134,3.0,2.998,0.041
12/06/2022,10:22:11,1.163,3.0,3.036,0.038
12/06/2022,10:24:10,1.543,4.0,3.081,0.045
12/06/2022,10:26:11,2.279,5.0,3.152,0.071
12/06/2022,10:28:10,2.323,5.0,3.228,0.076
12/06/2022,10:30:10,2.360,5.0,3.306,0.078
12/06/2022,10:32:10,2.378,5.0,3.385,0.079
12/06/2022,10:34:10,2.422,6.0,3.465,0.08
12/06/2022,10:36:11,2.363,5.0,3.546,0.081
12/06/2022,10:38:10,2.112,5.0,3.624,0.078
12/06/2022,10:40:10,2.013,5.0,3.685,0.061
12/06/2022,10:42:08,1.101,3.0,3.729,0.044
12/06/2022,10:44:10,1.068,2.0,3.766,0.037
12/06/2022,10:46:11,1.070,2.0,3.802,0.036
12/06/2022,10:48:10,0.983,2.0,3.836,0.034
12/06/2022,10:50:10,0.915,2.0,3.867,0.031
12/06/2022,10:52:10,0.952,2.0,3.898,0.031
12/06/2022,10:54:10,1.047,2.0,3.931,0.033
12/06/2022,10:56:10,2.262,5.0,3.971,0.04
12/06/2022,10:58:10,1.271,3.0,4.033,0.062
12/06/2022,11:00:10,1.314,3.0,4.084,0.051
12/06/2022,11:02:10,1.271,3.0,4.142,0.058
12/06/2022,11:04:10,1.278,3.0,4.184,0.042
12/06/2022,11:06:10,2.437,6.0,4.231,0.047
12/06/2022,11:08:10,2.445,6.0,4.311,0.08
12/06/2022,11:10:10,2.466,6.0,4.392,0.081
12/06/2022,11:12:10,2.504,6.0,4.473,0.081
12/06/2022,11:14:18,1.589,4.0,4.533,0.06
12/06/2022,11:16:10,2.474,6.0,4.589,0.056
12/06/2022,11:18:10,1.900,4.0,4.659,0.07
12/06/2022,11:20:10,2.264,5.0,4.721,0.062
12/06/2022,11:22:10,2.562,6.0,4.805,0.084
12/06/2022,11:24:10,2.505,6.0,4.89,0.085
12/06/2022,11:26:10,2.523,6.0,4.973,0.083
12/06/2022,11:28:10,2.531,6.0,5.057,0.084
12/06/2022,11:30:10,1.208,3.0,5.112,0.055
12/06/2022,11:32:10,1.237,3.0,5.152,0.04
12/06/2022,11:34:10,1.471,3.0,5.2,0.048
12/06/2022,11:36:10,2.490,6.0,5.277,0.077
12/06/2022,11:38:11,2.481,6.0,5.361,0.084
12/06/2022,11:40:10,2.481,6.0,5.442,0.081
12/06/2022,11:42:10,2.513,6.0,5.526,0.084
12/06/2022,11:44:10,2.520,6.0,5.609,0.083
12/06/2022,11:46:10,2.580,6.0,5.694,0.085
12/06/2022,11:48:10,2.139,5.0,5.768,0.074
12/06/2022,11:50:10,2.637,6.0,5.853,0.085
12/06/2022,11:52:11,2.678,6.0,5.942,0.089
12/06/2022,11:54:10,2.612,6.0,6.019,0.077
12/06/2022,11:56:10,2.653,6.0,6.108,0.089
12/06/2022,11:58:10,2.654,6.0,6.196,0.088
12/06/2022,12:00:10,2.687,6.0,6.285,0.089
12/06/2022,12:02:10,1.399,3.0,6.344,0.059
12/06/2022,12:04:10,1.252,3.0,6.392,0.048
12/06/2022,12:06:10,2.338,5.0,6.439,0.047
12/06/2022,12:08:10,1.230,3.0,6.501,0.062
12/06/2022,12:10:10,1.233,3.0,6.542,0.041
12/06/2022,12:12:10,1.408,3.0,6.599,0.057
12/06/2022,12:14:11,2.558,6.0,6.671,0.072
12/06/2022,12:16:10,1.510,3.0,6.752,0.081
12/06/2022,12:18:10,1.739,4.0,6.825,0.073
12/06/2022,12:20:19,1.281,3.0,6.89,0.065
12/06/2022,12:22:11,1.107,3.0,6.927,0.037
12/06/2022,12:24:10,0.973,2.0,6.961,0.034
12/06/2022,12:26:10,0.965,2.0,6.993,0.032
12/06/2022,12:28:11,1.033,2.0,7.027,0.034
12/06/2022,12:30:10,1.172,3.0,7.063,0.036
12/06/2022,12:32:19,1.247,3.0,7.109,0.046
12/06/2022,12:34:10,1.114,3.0,7.145,0.036
12/06/2022,12:36:10,1.220,3.0,7.183,0.038
12/06/2022,12:38:10,1.679,4.0,7.233,0.05
12/06/2022,12:40:11,2.541,6.0,7.3,0.067
12/06/2022,12:42:11,2.520,6.0,7.381,0.081
12/06/2022,12:44:11,2.538,6.0,7.465,0.084
12/06/2022,12:46:10,2.374,5.0,7.549,0.084
12/06/2022,12:48:10,1.475,3.0,7.606,0.057
12/06/2022,12:50:18,2.228,5.0,7.667,0.061
12/06/2022,12:52:10,2.352,5.0,7.718,0.051
12/06/2022,12:54:10,2.414,6.0,7.798,0.08
12/06/2022,12:56:11,2.447,6.0,7.879,0.081
12/06/2022,12:58:10,2.393,6.0,7.961,0.082
12/06/2022,13:00:10,2.492,6.0,8.031,0.07
12/06/2022,13:02:10,1.269,3.0,8.097,0.066
12/06/2022,13:04:11,1.203,3.0,8.138,0.041
12/06/2022,13:06:10,1.235,3.0,8.179,0.041
12/06/2022,13:08:10,2.338,5.0,8.245,0.066
12/06/2022,13:10:11,1.377,3.0,8.313,0.068
12/06/2022,13:12:11,2.170,5.0,8.388,0.075
12/06/2022,13:14:10,1.405,3.0,8.432,0.044
12/06/2022,13:16:11,2.245,5.0,8.487,0.055
12/06/2022,13:18:10,1.288,3.0,8.543,0.056
12/06/2022,13:20:10,1.275,3.0,8.585,0.042
12/06/2022,13:22:11,1.315,3.0,8.633,0.048
12/06/2022,13:24:10,1.514,3.0,8.686,0.053
12/06/2022,13:26:18,1.708,4.0,8.743,0.057
12/06/2022,13:28:11,1.530,4.0,8.794,0.051
12/06/2022,13:30:10,1.254,3.0,8.846,0.052
12/06/2022,13:32:10,1.099,3.0,8.885,0.039
12/06/2022,13:34:11,1.042,2.0,8.921,0.036
12/06/2022,13:36:11,1.062,2.0,8.956,0.035
12/06/2022,13:38:20,1.205,3.0,8.997,0.041
12/06/2022,13:40:10,2.205,5.0,9.055,0.058
12/06/2022,13:42:10,1.868,4.0,9.118,0.063
12/06/2022,13:44:18,1.195,3.0,9.163,0.045
12/06/2022,13:46:10,1.192,3.0,9.203,0.04
12/06/2022,13:48:10,1.152,3.0,9.244,0.041
12/06/2022,13:50:11,1.748,4.0,9.286,0.042
12/06/2022,13:52:10,1.151,3.0,9.328,0.042
12/06/2022,13:54:10,1.278,3.0,9.374,0.046
12/06/2022,13:56:19,2.152,5.0,9.446,0.072
12/06/2022,13:58:10,1.244,3.0,9.501,0.055
12/06/2022,14:00:10,1.332,3.0,9.558,0.057
12/06/2022,14:02:11,1.169,3.0,9.598,0.04
12/06/2022,14:04:10,1.613,4.0,9.648,0.05
12/06/2022,14:06:11,2.031,5.0,9.711,0.063
12/06/2022,14:08:10,1.379,3.0,9.768,0.057
12/06/2022,14:10:11,1.046,2.0,9.805,0.037
12/06/2022,14:12:10,0.961,2.0,9.838,0.033
12/06/2022,14:14:11,0.953,2.0,9.87,0.032
12/06/2022,14:16:11,1.527,4.0,9.906,0.036
12/06/2022,14:18:11,0.949,2.0,9.943,0.037
12/06/2022,14:20:11,0.803,2.0,9.972,0.029
12/06/2022,14:22:10,0.699,2.0,9.997,0.025
12/06/2022,14:24:11,0.665,2.0,10.019,0.022
12/06/2022,14:26:11,0.664,2.0,10.041,0.022
12/06/2022,14:28:11,0.733,2.0,10.064,0.023
12/06/2022,14:30:10,0.799,2.0,10.097,0.033
12/06/2022,14:32:10,0.796,2.0,10.124,0.027
12/06/2022,14:34:19,0.870,2.0,10.153,0.029
12/06/2022,14:36:10,0.870,2.0,10.18,0.027
12/06/2022,14:38:10,0.855,2.0,10.21,0.03
12/06/2022,14:40:11,0.987,2.0,10.239,0.029
12/06/2022,14:42:19,1.355,3.0,10.277,0.038
12/06/2022,14:44:10,1.689,4.0,10.33,0.053
12/06/2022,14:46:10,1.252,3.0,10.375,0.045
12/06/2022,14:48:10,1.226,3.0,10.417,0.042
12/06/2022,14:50:10,1.163,3.0,10.462,0.045
12/06/2022,14:52:11,1.039,2.0,10.498,0.036
12/06/2022,14:54:10,1.581,4.0,10.542,0.044
12/06/2022,14:56:11,1.539,4.0,10.593,0.051
12/06/2022,14:58:10,1.107,3.0,10.64,0.047
12/06/2022,15:00:11,0.994,2.0,10.679,0.039
12/06/2022,15:02:10,1.353,3.0,10.714,0.035
12/06/2022,15:04:11,0.895,2.0,10.758,0.044
12/06/2022,15:06:11,0.840,2.0,10.789,0.031
12/06/2022,15:08:10,0.786,2.0,10.816,0.027
12/06/2022,15:10:19,0.864,2.0,10.845,0.029
12/06/2022,15:12:11,0.878,2.0,10.872,0.027
12/06/2022,15:14:11,1.275,3.0,10.906,0.034
12/06/2022,15:16:11,0.787,2.0,10.94,0.034
12/06/2022,15:18:19,0.754,2.0,10.967,0.027
12/06/2022,15:20:11,0.849,2.0,10.991,0.024
12/06/2022,15:22:11,1.303,3.0,11.033,0.042
12/06/2022,15:24:10,1.018,2.0,11.072,0.039
12/06/2022,15:26:11,1.006,2.0,11.113,0.041
12/06/2022,15:28:11,1.250,3.0,11.154,0.041
12/06/2022,15:30:11,1.177,3.0,11.191,0.037
12/06/2022,15:32:11,1.245,3.0,11.232,0.041
12/06/2022,15:34:11,0.967,2.0,11.267,0.035
12/06/2022,15:36:10,0.666,2.0,11.292,0.025
12/06/2022,15:38:11,0.607,1.0,11.313,0.021
12/06/2022,15:40:10,0.583,1.0,11.333,0.02
12/06/2022,15:42:11,0.739,2.0,11.353,0.02
12/06/2022,15:44:10,1.027,2.0,11.379,0.026
12/06/2022,15:46:11,1.003,2.0,11.413,0.034
12/06/2022,15:48:10,0.947,2.0,11.438,0.025
12/06/2022,15:50:11,1.013,2.0,11.471,0.033
12/06/2022,15:52:11,0.989,2.0,11.502,0.031
12/06/2022,15:54:11,0.649,1.0,11.533,0.031
12/06/2022,15:56:19,0.604,1.0,11.555,0.022
12/06/2022,15:58:10,0.790,2.0,11.576,0.021
12/06/2022,16:00:11,0.687,2.0,11.601,0.025
12/06/2022,16:02:11,0.606,1.0,11.621,0.02
12/06/2022,16:04:10,0.908,2.0,11.648,0.027
12/06/2022,16:06:10,0.900,2.0,11.678,0.03
12/06/2022,16:08:19,0.879,2.0,11.71,0.032
12/06/2022,16:10:10,0.857,2.0,11.737,0.027
12/06/2022,16:12:10,0.825,2.0,11.765,0.028
12/06/2022,16:14:19,0.711,2.0,11.79,0.025
12/06/2022,16:16:11,0.516,1.0,11.807,0.017
12/06/2022,16:18:11,0.475,1.0,11.824,0.017
12/06/2022,16:20:19,0.457,1.0,11.841,0.017
12/06/2022,16:22:18,0.443,1.0,11.856,0.015
12/06/2022,16:24:11,0.653,2.0,11.873,0.017
12/06/2022,16:26:11,0.525,1.0,11.895,0.022
12/06/2022,16:28:11,0.516,1.0,11.912,0.017
12/06/2022,16:30:11,0.475,1.0,11.928,0.016
12/06/2022,16:32:10,0.669,2.0,11.949,0.021
12/06/2022,16:34:28,0.667,2.0,11.974,0.025
12/06/2022,16:36:11,0.539,1.0,11.992,0.018
12/06/2022,16:38:11,0.461,1.0,12.011,0.019
12/06/2022,16:40:19,0.436,1.0,12.028,0.017
12/06/2022,16:42:10,0.419,1.0,12.042,0.014
12/06/2022,16:44:10,0.390,1.0,12.055,0.013
12/06/2022,16:46:11,0.380,1.0,12.068,0.013
12/06/2022,16:48:10,0.372,1.0,12.08,0.012
12/06/2022,16:50:11,0.420,1.0,12.095,0.015
12/06/2022,16:52:10,0.361,1.0,12.108,0.013
12/06/2022,16:54:19,0.341,1.0,12.121,0.013
12/06/2022,16:56:10,0.334,1.0,12.132,0.011
12/06/2022,16:58:10,0.310,1.0,12.142,0.01
12/06/2022,17:00:19,0.307,1.0,12.153,0.011
12/06/2022,17:02:10,0.303,1.0,12.162,0.009
12/06/2022,17:04:10,0.375,1.0,12.174,0.012
12/06/2022,17:06:11,0.295,1.0,12.185,0.011
12/06/2022,17:08:11,0.289,1.0,12.195,0.01
12/06/2022,17:10:10,0.288,1.0,12.205,0.01
12/06/2022,17:12:10,0.276,1.0,12.214,0.009
12/06/2022,17:14:11,0.254,1.0,12.223,0.009
12/06/2022,17:16:11,0.258,1.0,12.233,0.01
12/06/2022,17:18:11,0.235,1.0,12.241,0.008
12/06/2022,17:20:11,0.233,1.0,12.248,0.007
12/06/2022,17:22:11,0.219,1.0,12.256,0.008
12/06/2022,17:24:10,0.203,0.0,12.263,0.007
12/06/2022,17:26:11,0.195,0.0,12.269,0.006
12/06/2022,17:28:11,0.191,0.0,12.276,0.007
12/06/2022,17:30:10,0.209,0.0,12.282,0.006
12/06/2022,17:32:11,0.216,0.0,12.29,0.008
12/06/2022,17:34:11,0.229,1.0,12.298,0.008
12/06/2022,17:36:11,0.222,1.0,12.305,0.007
12/06/2022,17:38:11,0.215,0.0,12.312,0.007
12/06/2022,17:40:11,0.214,0.0,12.319,0.007
12/06/2022,17:42:11,0.218,1.0,12.327,0.008
12/06/2022,17:44:20,0.230,1.0,12.335,0.008
12/06/2022,17:46:10,0.226,1.0,12.342,0.007
12/06/2022,17:48:11,0.220,1.0,12.35,0.008
12/06/2022,17:50:10,0.217,0.0,12.357,0.007
12/06/2022,17:52:11,0.210,0.0,12.364,0.007
12/06/2022,17:54:11,0.205,0.0,12.371,0.007
12/06/2022,17:56:19,0.199,0.0,12.378,0.007
12/06/2022,17:58:11,0.194,0.0,12.384,0.006
12/06/2022,18:00:11,0.187,0.0,12.391,0.007
12/06/2022,18:02:28,0.182,0.0,12.398,0.007
12/06/2022,18:04:10,0.176,0.0,12.403,0.005
12/06/2022,18:06:11,0.164,0.0,12.408,0.005
12/06/2022,18:08:11,0.164,0.0,12.414,0.006
12/06/2022,18:10:11,0.149,0.0,12.419,0.005
12/06/2022,18:12:11,0.150,0.0,12.424,0.005
12/06/2022,18:14:11,0.146,0.0,12.429,0.005
12/06/2022,18:16:11,0.138,0.0,12.434,0.005
12/06/2022,18:18:10,0.126,0.0,12.438,0.004
12/06/2022,18:20:11,0.129,0.0,12.442,0.004
12/06/2022,18:22:19,0.124,0.0,12.447,0.005
12/06/2022,18:24:11,0.119,0.0,12.451,0.004
12/06/2022,18:26:11,0.115,0.0,12.455,0.004
12/06/2022,18:28:11,0.109,0.0,12.458,0.003
12/06/2022,18:30:11,0.106,0.0,12.462,0.004
12/06/2022,18:32:11,0.102,0.0,12.465,0.003
12/06/2022,18:34:19,0.098,0.0,12.469,0.004
12/06/2022,18:36:11,0.094,0.0,12.472,0.003
12/06/2022,18:38:11,0.090,0.0,12.475,0.003
12/06/2022,18:40:11,0.087,0.0,12.478,0.003
12/06/2022,18:42:11,0.083,0.0,12.481,0.003
12/06/2022,18:44:11,0.080,0.0,12.483,0.002
12/06/2022,18:46:11,0.076,0.0,12.486,0.003
12/06/2022,18:48:11,0.072,0.0,12.489,0.003
12/06/2022,18:50:11,0.071,0.0,12.491,0.002
12/06/2022,18:52:11,0.067,0.0,12.493,0.002
12/06/2022,18:54:11,0.062,0.0,12.495,0.002
12/06/2022,18:56:11,0.060,0.0,12.498,0.003
12/06/2022,18:58:11,0.057,0.0,12.499,0.001
12/06/2022,19:00:19,0.053,0.0,12.501,0.002
12/06/2022,19:02:11,0.052,0.0,12.503,0.002
12/06/2022,19:04:11,0.048,0.0,12.505,0.002
12/06/2022,19:06:20,0.046,0.0,12.507,0.002
12/06/2022,19:08:11,0.044,0.0,12.508,0.001
12/06/2022,19:10:11,0.041,0.0,12.509,0.001
12/06/2022,19:12:11,0.039,0.0,12.511,0.002
12/06/2022,19:14:11,0.037,0.0,12.512,0.001
12/06/2022,19:16:11,0.035,0.0,12.513,0.001
12/06/2022,19:18:19,0.033,0.0,12.514,0.001
12/06/2022,19:20:11,0.031,0.0,12.515,0.001
12/06/2022,19:22:11,0.031,0.0,12.516,0.001
12/06/2022,19:24:11,0.028,0.0,12.517,0.001
12/06/2022,19:26:10,0.026,0.0,12.518,0.001
12/06/2022,19:28:11,0.025,0.0,12.519,0.001
12/06/2022,19:30:11,0.023,0.0,12.52,0.001